User: anonymous   Login
Location: Caltech
(34.1382°N, 118.1253°W)
Time: 03:38:13
(UTC-08:00)
Language:

Gbstr 26 Del rocket - Orbit

View from above orbital plane
View from above orbital plane
View from above satellite
View from above satellite

Ground track
Ground track

The orbit data is extracted from the following two-line orbital elements,

1 25876U 99041E   15057.49650086  .00000640  00000-0  15254-3 0  9997
2 25876 051.7650 035.6260 0537498 096.4126 049.3526 14.02913273796407
Epoch (UTC): 26 February 2015 11:54:57
Eccentricity: 0.0537498
inclination: 51.7650°
perigee height: 493 km
apogee height: 1274 km
right ascension of ascending node: 35.6260°
argument of perigee: 96.4126°
revolutions per day: 14.02913273
mean anomaly at epoch: 49.3526°
orbit number at epoch: 79640

The dashed part of the orbit path shows where the satellite is in the earth's shadow,  

DLR